Total_Precipitation_Accumulation
0.05 0.09 0.12 0.15 0.13 0.10 0.07 0.05 0.07 0.10 0.16 0.19 0.25 0.17 0.12 0.14 0.12 0.11 0.08 0.06 0.07 0.08 0.08 0.10 0.13 0.15 0.18 0.20 0.26 0.30 0.32 0.35 0.34 0.33 0.34 0.33 0.30 0.29 0.31 0.32 0.33 0.36 0.34 0.32
0.04 0.07 0.10 0.11 0.14 0.10 0.07 0.06 0.05 0.08 0.16 0.20 0.21 0.17 0.15 0.15 0.15 0.13 0.12 0.12 0.15 0.16 0.16 0.17 0.19 0.22 0.25 0.26 0.34 0.40 0.48 0.52 0.52 0.59 0.61 0.55 0.51 0.51 0.49 0.49 0.52 0.55 0.53 0.49
0.07 0.10 0.10 0.13 0.12 0.11 0.12 0.10 0.09 0.12 0.19 0.20 0.20 0.23 0.32 0.31 0.27 0.25 0.24 0.24 0.24 0.27 0.25 0.25 0.24 0.27 0.32 0.36 0.45 0.54 0.64 0.74 0.79 0.82 0.88 0.86 0.81 0.76 0.71 0.73 0.77 0.77 0.74 0.69
0.11 0.14 0.19 0.15 0.16 0.13 0.14 0.15 0.14 0.18 0.24 0.30 0.39 0.40 0.47 0.46 0.37 0.27 0.22 0.23 0.25 0.31 0.33 0.30 0.34 0.39 0.42 0.48 0.58 0.71 0.84 0.96 1.07 1.05 1.02 1.01 0.99 0.89 0.88 0.95 0.98 0.96 0.90 0.83
0.20 0.21 0.18 0.18 0.22 0.23 0.24 0.27 0.27 0.35 0.41 0.49 0.53 0.43 0.36 0.30 0.21 0.17 0.16 0.19 0.24 0.29 0.35 0.40 0.40 0.44 0.49 0.49 0.57 0.73 0.85 0.88 0.90 0.96 1.03 1.10 1.08 1.07 1.11 1.11 1.03 0.93 0.87 0.86
0.30 0.31 0.31 0.30 0.36 0.33 0.33 0.53 0.47 0.43 0.45 0.49 0.46 0.52 0.47 0.32 0.24 0.19 0.17 0.18 0.20 0.22 0.25 0.33 0.42 0.44 0.45 0.50 0.59 0.72 0.82 0.82 0.78 0.85 0.99 1.11 1.16 1.16 1.14 1.12 1.08 1.05 0.96 0.97
0.40 0.43 0.37 0.37 0.33 0.31 0.47 0.58 0.52 0.52 0.52 0.52 0.55 0.53 0.49 0.32 0.23 0.20 0.18 0.16 0.17 0.17 0.17 0.23 0.30 0.35 0.41 0.49 0.56 0.59 0.65 0.72 0.77 0.86 0.97 1.03 1.11 1.15 1.18 1.20 1.23 1.24 1.17 1.11
0.52 0.64 0.61 0.47 0.40 0.50 0.60 0.51 0.55 0.55 0.49 0.45 0.41 0.34 0.29 0.25 0.22 0.19 0.17 0.16 0.15 0.16 0.17 0.20 0.23 0.27 0.33 0.36 0.38 0.42 0.45 0.49 0.52 0.63 0.75 0.83 0.96 1.00 1.06 1.08 1.08 1.08 1.09 1.03
0.70 0.76 0.61 0.56 0.56 0.60 0.57 0.47 0.45 0.44 0.41 0.40 0.40 0.35 0.27 0.25 0.22 0.17 0.14 0.12 0.10 0.12 0.14 0.18 0.23 0.28 0.35 0.37 0.39 0.40 0.41 0.41 0.44 0.51 0.67 0.83 0.88 0.86 0.89 0.91 0.90 0.90 0.93 0.94
0.82 0.86 0.77 0.70 0.65 0.57 0.56 0.50 0.42 0.39 0.43 0.43 0.41 0.34 0.31 0.28 0.21 0.14 0.10 0.07 0.08 0.09 0.11 0.13 0.14 0.19 0.25 0.30 0.36 0.42 0.44 0.45 0.47 0.53 0.67 0.91 1.05 0.99 0.92 0.91 0.88 0.87 0.84 0.85
0.78 0.90 0.78 0.69 0.63 0.59 0.57 0.51 0.46 0.43 0.43 0.38 0.32 0.32 0.30 0.24 0.16 0.11 0.08 0.07 0.08 0.09 0.11 0.12 0.13 0.16 0.22 0.29 0.37 0.41 0.41 0.40 0.40 0.47 0.61 0.83 1.00 1.00 0.88 0.86 0.84 0.83 0.81 0.80
0.70 0.72 0.75 0.75 0.66 0.59 0.60 0.58 0.51 0.45 0.42 0.38 0.31 0.28 0.25 0.18 0.12 0.10 0.08 0.08 0.10 0.12 0.14 0.16 0.19 0.24 0.28 0.35 0.44 0.50 0.48 0.45 0.45 0.48 0.57 0.77 0.99 1.05 0.86 0.70 0.69 0.68 0.63 0.61
0.60 0.58 0.64 0.64 0.62 0.63 0.64 0.60 0.55 0.49 0.43 0.37 0.31 0.24 0.16 0.14 0.09 0.08 0.09 0.11 0.14 0.17 0.19 0.22 0.24 0.24 0.25 0.31 0.40 0.46 0.47 0.44 0.42 0.43 0.47 0.59 0.84 1.09 1.13 0.87 0.66 0.56 0.45 0.36
0.50 0.51 0.59 0.61 0.63 0.67 0.66 0.57 0.53 0.50 0.46 0.38 0.29 0.20 0.13 0.10 0.09 0.10 0.13 0.17 0.23 0.27 0.27 0.29 0.27 0.25 0.26 0.33 0.38 0.41 0.41 0.38 0.36 0.36 0.38 0.47 0.69 0.97 1.17 1.15 0.98 0.73 0.45 0.28
0.48 0.50 0.53 0.50 0.56 0.55 0.52 0.44 0.40 0.41 0.38 0.32 0.24 0.17 0.12 0.11 0.12 0.16 0.20 0.30 0.39 0.39 0.36 0.34 0.31 0.29 0.30 0.36 0.38 0.36 0.37 0.33 0.30 0.31 0.32 0.37 0.56 0.83 1.05 1.13 1.08 0.96 0.68 0.37
0.43 0.43 0.40 0.38 0.42 0.45 0.44 0.38 0.32 0.31 0.27 0.21 0.16 0.11 0.10 0.11 0.13 0.17 0.24 0.40 0.56 0.58 0.48 0.42 0.37 0.34 0.35 0.38 0.36 0.32 0.31 0.25 0.20 0.22 0.25 0.30 0.42 0.66 0.92 1.07 1.03 0.98 0.83 0.49
0.43 0.39 0.35 0.32 0.32 0.37 0.40 0.38 0.33 0.29 0.23 0.18 0.15 0.13 0.13 0.17 0.20 0.26 0.37 0.47 0.53 0.52 0.47 0.46 0.40 0.36 0.35 0.36 0.35 0.31 0.27 0.23 0.15 0.15 0.24 0.30 0.37 0.55 0.81 0.99 0.96 0.88 0.77 0.46
0.33 0.30 0.28 0.25 0.25 0.28 0.30 0.28 0.26 0.22 0.20 0.18 0.17 0.15 0.16 0.24 0.34 0.48 0.59 0.63 0.57 0.45 0.39 0.40 0.36 0.32 0.31 0.28 0.26 0.25 0.24 0.24 0.21 0.22 0.28 0.32 0.36 0.54 0.77 0.91 0.88 0.83 0.74 0.51
0.21 0.19 0.19 0.16 0.15 0.15 0.14 0.14 0.12 0.11 0.11 0.14 0.15 0.13 0.14 0.20 0.34 0.52 0.63 0.75 0.79 0.66 0.46 0.33 0.30 0.26 0.24 0.20 0.20 0.21 0.20 0.22 0.22 0.24 0.29 0.28 0.39 0.57 0.72 0.80 0.78 0.75 0.64 0.53
0.14 0.13 0.12 0.11 0.10 0.10 0.10 0.10 0.08 0.08 0.10 0.14 0.13 0.10 0.11 0.17 0.32 0.53 0.66 0.77 0.84 0.76 0.55 0.37 0.26 0.20 0.16 0.13 0.13 0.18 0.21 0.24 0.26 0.29 0.31 0.38 0.48 0.61 0.67 0.66 0.65 0.63 0.60 0.60
0.11 0.10 0.08 0.07 0.05 0.04 0.03 0.03 0.03 0.05 0.09 0.11 0.09 0.08 0.12 0.18 0.29 0.50 0.81 0.99 0.88 0.71 0.55 0.42 0.29 0.19 0.13 0.12 0.11 0.15 0.19 0.22 0.28 0.34 0.38 0.44 0.54 0.63 0.64 0.62 0.57 0.54 0.55 0.59
0.10 0.08 0.07 0.06 0.03 0.02 0.02 0.01 0.02 0.04 0.07 0.08 0.07 0.08 0.13 0.21 0.31 0.43 0.63 0.94 0.99 0.88 0.63 0.43 0.31 0.20 0.15 0.13 0.12 0.14 0.17 0.20 0.25 0.31 0.35 0.39 0.49 0.58 0.57 0.52 0.47 0.47 0.51 0.58
0.09 0.07 0.06 0.04 0.03 0.02 0.01 0.01 0.01 0.02 0.04 0.05 0.07 0.09 0.14 0.22 0.35 0.60 0.75 0.73 0.81 0.91 0.68 0.47 0.37 0.27 0.17 0.14 0.16 0.18 0.19 0.23 0.31 0.33 0.31 0.35 0.38 0.44 0.47 0.45 0.46 0.47 0.52 0.54
0.06 0.05 0.04 0.03 0.02 0.02 0.02 0.02 0.02 0.02 0.03 0.03 0.04 0.06 0.12 0.23 0.31 0.45 0.64 0.73 0.75 0.81 0.63 0.46 0.37 0.27 0.21 0.19 0.23 0.27 0.33 0.40 0.41 0.36 0.31 0.32 0.35 0.39 0.45 0.45 0.42 0.46 0.50 0.51
0.06 0.04 0.03 0.03 0.03 0.03 0.03 0.02 0.03 0.04 0.04 0.04 0.05 0.07 0.10 0.18 0.34 0.49 0.60 0.67 0.78 0.83 0.71 0.55 0.42 0.35 0.31 0.32 0.36 0.46 0.52 0.46 0.39 0.35 0.31 0.31 0.36 0.41 0.43 0.45 0.49 0.49 0.49 0.49
0.05 0.04 0.04 0.04 0.04 0.03 0.03 0.04 0.05 0.06 0.06 0.08 0.09 0.11 0.15 0.21 0.30 0.42 0.53 0.58 0.66 0.75 0.70 0.53 0.37 0.34 0.34 0.39 0.44 0.49 0.48 0.42 0.37 0.35 0.34 0.36 0.40 0.43 0.43 0.46 0.50 0.49 0.49 0.50
0.04 0.05 0.06 0.05 0.05 0.05 0.06 0.08 0.10 0.10 0.13 0.17 0.21 0.24 0.27 0.31 0.34 0.41 0.47 0.53 0.55 0.56 0.52 0.41 0.30 0.30 0.30 0.31 0.35 0.38 0.39 0.40 0.39 0.38 0.39 0.41 0.43 0.45 0.42 0.40 0.40 0.40 0.39 0.40